Flag for United Kingdom Weather past 2 weeks in Cheltenham, England, United Kingdom

Now
64 °F

Scattered clouds.


Feels Like: 64 °F
Forecast: 51 / 67 °F
Wind: 5 mph from Southwest

Location: Staverton Private

Current Time: Oct 1, 2014 at 1:41:40 PM

Latest Report: Oct 1, 2014 at 12:50 PM


Visibility: N/A

Pressure: 30.27 "Hg

Humidity: 78%

Dew point: 57 °F

Location of CheltenhamLocation

Historic Weather in Cheltenham — Graph

°F

Cheltenham temperature yesterday

Maximum temperature yesterday: 70 °F (at 2:20 PM)
Minimum temperature yesterday: 54 °F (at 7:50 AM)
Average temperature yesterday: 64 °F

Past Weeks' High & Low Weather Summary

 TemperatureHumidityPressure
High75 °F (Sep 18, 3:20 PM)100% (Sep 19, 8:20 AM)30.33 "Hg (Sep 19, 8:20 AM)
Low41 °F (Sep 22, 6:50 AM)49% (Sep 22, 2:50 PM)29.77 "Hg (Sep 18, 4:20 PM)
Average64 °F77%30.09 "Hg
* Reported Sep 16 12:20 PM — Oct 1 12:50 PM, Cheltenham, Weather by CustomWeather, © 2014

Note: Actual official high and low records may vary slightly from our data, if they occured in-between our weather recording intervals... More about our weather records

Advertising

Cheltenham weather history for previous 24 hours

 ConditionsComfort  
Time TempWeatherWind HumidityBarometerVisibility
12:50 PM
Oct 1
64 °FScattered clouds.5 mph78%30.27 "HgN/A
12:20 PM66 °FScattered clouds.7 mph73%30.27 "HgN/A
11:50 AM64 °FScattered clouds.9 mph78%30.24 "HgN/A
11:20 AM63 °FPassing clouds.9 mph83%30.24 "HgN/A
10:50 AM61 °FPassing clouds.8 mph88%30.24 "HgN/A
9:50 AM61 °FPassing clouds.7 mph88%30.24 "HgN/A
9:20 AM61 °FPassing clouds.5 mph88%30.24 "HgN/A
8:50 AM59 °FSunny.5 mph88%30.21 "Hg10 mi
8:20 AM57 °FSunny.3 mph94%30.21 "Hg10 mi
7:50 AM57 °FPassing clouds.3 mph94%30.21 "HgN/A
7:20 AM57 °FPassing clouds.3 mph88%30.18 "HgN/A
6:50 AM57 °FPassing clouds.5 mph94%30.18 "HgN/A
7:20 PM
Sep 30
64 °FPassing clouds.6 mph78%30.18 "HgN/A
6:50 PM64 °FPassing clouds.5 mph78%30.18 "HgN/A
6:20 PM64 °FPassing clouds.2 mph78%30.18 "HgN/A
5:50 PM66 °FPassing clouds.5 mph78%30.18 "HgN/A
5:20 PM68 °FPassing clouds.6 mph73%30.18 "HgN/A
4:50 PM68 °FPassing clouds.5 mph69%30.18 "HgN/A
4:20 PM70 °FPassing clouds.6 mph64%30.18 "HgN/A
3:50 PM70 °FPassing clouds.7 mph64%30.18 "HgN/A
3:20 PM70 °FPassing clouds.7 mph64%30.18 "HgN/A
2:50 PM70 °FPassing clouds.7 mph64%30.18 "HgN/A
2:20 PM70 °FPassing clouds.6 mph60%30.18 "HgN/A
1:50 PM68 °FPassing clouds.6 mph69%30.21 "HgN/A
1:20 PM68 °FPassing clouds.6 mph69%30.21 "HgN/A
Weather by CustomWeather, © 2014

See weather overviewHow to use our weather pages